Theta_e
336 336 334 334 334 333 332 333 333 333 331 330 330 328 327 325 324 324 324 322 321 321
335 335 334 333 334 333 333 333 333 331 331 331 330 330 327 324 325 323 323 325 323 323
335 333 333 332 331 331 329 327 327 328 330 329 328 327 323 322 321 321 323 323 323 321
332 333 332 330 328 328 327 326 327 327 327 326 325 324 322 321 321 320 317 317 317 317
328 327 325 324 324 324 324 322 321 321 320 319 319 319 319 319 318 316 315 318 317 315
324 323 321 322 324 323 321 319 320 317 317 318 316 315 315 315 315 313 312 312 310 310
323 323 323 324 321 320 318 316 315 315 314 317 315 314 312 311 310 309 310 310 310 309
325 325 322 321 319 317 316 315 313 310 310 309 308 310 308 307 307 307 306 308 309 309
321 321 320 318 317 316 317 312 311 305 306 305 310 307 308 308 305 305 304 304 306 307
318 321 321 321 319 313 311 307 304 304 304 305 307 306 306 306 303 303 303 303 303 306
318 318 316 313 314 311 306 305 303 303 306 306 307 306 304 304 303 302 302 303 303 303
315 313 311 312 309 306 304 303 303 306 305 306 307 305 303 304 306 304 305 305 304 303
310 310 307 303 302 303 304 305 306 306 306 305 304 303 301 300 302 300 302 302 304 304
308 306 304 304 305 305 304 304 304 304 302 302 303 302 299 299 301 300 303 302 300 302
Wind_Speed
6 5 5 4 6 2 3 4 7 5 5 6 4 5 4 3 4 5 6 7 5 5
5 7 6 6 1 1 4 2 6 6 4 4 4 5 3 3 5 4 4 6 5 5
7 5 2 3 5 4 3 4 7 4 3 3 4 3 2 2 2 3 3 3 5 6
4 4 3 4 5 4 4 6 5 3 5 6 6 6 5 5 5 4 4 4 3 5
6 6 5 4 2 3 4 3 6 6 6 5 5 5 4 5 5 4 5 5 4 6
5 5 3 3 4 6 6 6 6 6 6 4 3 3 4 3 4 4 5 6 5 6
5 4 3 5 6 6 5 7 5 3 2 3 3 4 4 4 5 6 6 6 6 7
3 6 6 6 6 6 5 3 4 3 1 2 1 1 4 6 6 7 7 7 7 7
6 6 5 5 5 4 3 2 1 3 3 6 4 9 9 3 5 6 6 7 8 7
5 4 3 4 5 5 3 1 2 5 5 5 6 9 9 8 5 5 6 7 6 7
5 5 5 5 3 3 2 3 3 3 3 3 6 9 10 8 6 6 7 6 6 6
4 4 3 5 6 4 3 2 3 3 3 4 7 9 9 8 7 5 7 7 7 6
5 6 6 4 5 4 3 3 1 3 3 5 6 10 10 7 2 5 4 7 7 10
6 5 5 4 1 1 2 2 2 3 5 6 5 7 6 7 3 3 5 5 5 7
Wind_Direction
156 153 189 166 153 228 122 294 297 287 259 252 251 263 275 281 263 259 251 258 256 262
150 169 168 170 214 114 77 297 274 307 306 308 286 278 275 257 268 267 270 273 262 254
173 190 122 131 166 113 72 241 264 270 286 308 324 349 316 295 305 294 295 273 298 296
89 111 117 95 109 167 202 264 280 3 23 17 359 2 359 334 318 327 321 327 319 301
84 95 118 176 152 146 130 106 83 86 69 45 39 34 20 346 334 344 326 301 305 286
118 107 119 99 114 116 107 76 62 62 55 43 22 358 356 336 316 315 297 288 301 300
97 134 133 132 118 107 110 92 73 57 58 7 341 349 357 347 326 318 304 301 294 293
52 92 95 104 105 107 98 120 127 74 11 359 25 337 334 334 311 299 298 298 290 281
84 98 113 120 121 151 162 165 117 211 54 3 337 330 314 284 298 301 299 294 301 298
113 138 153 150 184 194 205 234 295 11 22 335 301 298 301 303 288 308 306 296 298 302
147 161 172 185 202 244 280 291 330 318 285 290 291 285 290 322 302 312 290 279 274 275
138 166 198 222 235 259 296 290 260 272 311 294 299 309 310 332 318 309 312 314 314 313
180 196 212 227 235 226 214 220 219 287 272 283 304 313 325 303 353 328 325 315 319 314
208 222 232 231 269 192 154 157 231 286 305 314 307 309 354 27 9 326 318 317 306 306